#timestamp,LO_Frequency,Hit,StdDev 
1572897615.5,286047000.2,N
1572897635.3,286047000.3,N
1572897655.2,286047002.3,N
1572897675.9,286047000.0,N
1572897695.7,286047001.0,N
1572897715.6,286046998.7,N
1572897735.4,286046998.6,N
1572897755.2,286047001.1,N
1572897775.1,286047001.2,N
1572897776.0,286047001.2,N
1572897795.8,286046998.7,N
1572897815.7,286047001.2,N
1572897835.5,286046996.9,N
1572897855.3,286046998.3,N
1572897875.2,286047000.7,N
1572897895.0,286047000.7,N
1572897895.9,286047000.7,N
1572897915.8,286046998.2,N
1572897935.6,286047000.8,N
1572897955.4,286047000.3,N
1572897975.3,286046999.8,N
1572897995.1,286046998.8,N
1572898015.8,286046999.6,N
1572898035.7,286046997.1,N
1572898055.5,286046994.9,Y
1572898075.4,286046999.5,P
1572898095.2,286046998.6,P
1572898115.0,286047001.2,N
1572898115.9,286047001.2,N
1572898135.8,286047000.1,N
1572898155.6,286047000.0,N
1572898175.5,286046999.8,N
1572898195.3,286047000.3,N
1572898215.1,286046998.7,N
1572898235.9,286046998.9,N
1572898255.7,286046996.9,Y
1572898275.5,286046997.5,P
1572898295.4,286046994.9,P
1572898315.2,286046995.1,N
1572898335.0,286046997.8,N
1572898336.0,286046997.8,N
1572898355.8,286046994.9,Y
1572898375.6,286047000.0,P
1572898395.5,286046999.9,N
1572898415.3,286047002.4,N
1572898435.1,286047002.4,N
1572898455.9,286047000.8,N
1572898475.7,286047000.0,N
1572898495.6,286047000.3,N
1572898515.4,286047002.5,N
1572898535.2,286047002.8,N
1572898555.1,286047000.8,N
1572898556.0,286047000.8,N
1572898575.8,286047000.5,N
1572898595.6,286047002.8,N
1572898615.5,286047002.4,N
1572898635.3,286047002.6,N
1572898655.2,286047003.2,N
1572898675.9,286047003.4,N
1572898695.7,286047003.9,N
1572898715.6,286047002.0,N
1572898735.4,286047000.9,N
1572898755.2,286047000.5,N
1572898775.1,286047000.5,N
1572898776.0,286047000.5,N
1572898795.8,286047000.3,N
1572898815.7,286047001.0,N
1572898835.5,286047000.9,N
1572898855.3,286047001.1,N
1572898875.2,286047000.4,N
1572898895.0,286047002.8,N
1572898895.9,286047002.8,N
1572898915.7,286047000.7,N
1572898935.6,286047000.7,N
1572898955.4,286047001.0,N
1572898975.3,286047002.7,N
1572898995.1,286046998.4,N
1572898996.0,286046998.4,N
1572899015.8,286046999.4,N
1572899035.7,286046996.9,N
1572899055.5,286046997.8,N
1572899075.3,286046999.0,N
1572899095.2,286046998.8,N
1572899115.0,286046999.3,N
1572899115.9,286046999.3,N
1572899135.8,286046999.2,N
1572899155.6,286046997.0,N
1572899175.4,286046997.5,N
1572899195.3,286046999.4,N
1572899215.1,286046997.1,N
1572899235.9,286046997.3,N
1572899255.7,286046999.2,N
1572899275.5,286047000.7,N
1572899295.4,286047000.7,N
1572899315.2,286047000.4,N
1572899335.0,286047000.3,N
1572899335.9,286047000.3,N
1572899355.8,286046996.6,N
1572899375.6,286046998.1,N
1572899395.5,286047001.2,N
1572899415.3,286047000.0,N
1572899435.1,286047001.3,N
1572899455.9,286047002.3,N
1572899475.7,286047001.9,N
1572899495.5,286047002.8,N
1572899515.4,286047002.5,N
1572899535.2,286047001.8,N
1572899555.1,286047002.8,N
1572899556.0,286047002.8,N
1572899575.8,286046999.9,N
1572899595.6,286047002.2,N
1572899615.5,286047000.4,N
1572899635.3,286047002.4,N
1572899655.1,286047000.1,N
1572899675.9,286047000.8,N
1572899695.7,286046998.6,N
1572899715.6,286046998.5,N
1572899735.4,286046998.7,N
1572899755.2,286047001.0,N
1572899775.1,286046998.5,N
1572899776.0,286046998.5,N
1572899795.8,286046998.9,N
1572899815.6,286046998.9,N
1572899835.5,286047000.2,N
1572899855.3,286047000.0,N
1572899875.2,286047000.1,N
1572899895.9,286047000.2,N
1572899915.7,286046998.1,N
1572899935.6,286047000.6,N
1572899955.4,286047000.0,N
1572899975.3,286046998.6,N
1572899995.1,286046998.1,N
1572899996.0,286046998.1,N
1572900015.8,286046999.2,N
1572900035.7,286047001.0,N
1572900055.5,286047002.4,N
1572900075.3,286047002.3,N
1572900095.2,286047002.2,N
1572900115.0,286047004.0,N
1572900115.9,286047004.0,N
1572900135.8,286047004.4,N
1572900155.6,286047001.3,N
1572900175.4,286047003.1,N
1572900195.3,286047003.8,N
1572900215.1,286047002.0,N
1572900235.9,286047002.2,N
1572900255.7,286047002.8,N
1572900275.5,286047000.5,N
1572900295.4,286047001.1,N
1572900315.2,286047000.6,N
1572900335.0,286047000.2,N
1572900335.9,286047000.2,N
1572900355.8,286046999.8,N
1572900375.6,286047002.4,N
1572900395.5,286046999.7,N
1572900415.3,286047002.0,N
1572900435.1,286047000.2,N
1572900455.9,286047002.4,N
1572900475.7,286046999.9,N
1572900495.5,286046999.9,N
1572900515.4,286047000.4,N
1572900535.2,286046999.9,N
1572900555.1,286046998.1,N
1572900556.0,286046998.1,N
1572900575.8,286047001.0,N
1572900595.6,286047000.5,N
1572900615.5,286047001.2,N
1572900635.3,286047000.5,N
1572900655.1,286046999.9,N
1572900675.9,286047001.0,N
1572900695.7,286046998.8,N
1572900715.6,286047000.4,N
1572900735.4,286047000.8,N
1572900755.2,286047000.2,N
1572900775.1,286046999.7,N
1572900776.0,286046999.7,N
1572900795.8,286047000.0,N
1572900815.6,286046998.8,N
1572900835.5,286046998.7,N
1572900855.3,286046999.8,N
1572900875.2,286047000.0,N
1572900895.9,286047002.6,N
1572900915.7,286047002.4,N
1572900935.6,286046999.7,N
1572900955.4,286046999.8,N
1572900975.2,286047002.7,N
1572900995.1,286047001.5,N
1572900996.0,286047001.5,N
1572901015.8,286047000.4,N
1572901035.7,286046998.6,N
1572901055.5,286047001.0,N
1572901075.3,286046998.2,N
1572901095.2,286046998.1,N
1572901115.0,286047001.2,N
1572901115.9,286047001.2,N
1572901135.7,286047000.5,N
1572901155.6,286047000.3,N
1572901175.4,286047000.2,N
1572901195.3,286047001.6,N
